Temp
-5 -5 -5 -5 -5 -5 -5 -5 -5 -6 -6 -6 -6 -6 -6 -7 -7 -7 -7 -7 -7 -7 -7 -7 -7 -7 -7 -7 -7 -7 -7 -7 -8 -8 -8 -8 -8 -8 -8 -8 -8 -8
-5 -5 -5 -5 -5 -6 -5 -5 -5 -6 -6 -6 -6 -6 -6 -7 -7 -7 -7 -7 -7 -7 -7 -7 -7 -7 -7 -7 -7 -7 -7 -7 -8 -8 -8 -8 -8 -8 -8 -8 -8 -7
-5 -5 -5 -5 -6 -6 -6 -5 -5 -5 -6 -6 -6 -6 -6 -7 -7 -7 -7 -7 -7 -7 -7 -7 -7 -7 -8 -7 -7 -7 -7 -8 -8 -8 -8 -8 -8 -8 -8 -8 -8 -8
-5 -5 -5 -5 -5 -5 -5 -5 -5 -5 -6 -6 -6 -6 -6 -7 -7 -7 -7 -7 -7 -7 -7 -7 -7 -7 -8 -8 -8 -8 -8 -8 -8 -8 -8 -8 -8 -8 -8 -8 -8 -7
-5 -5 -5 -5 -5 -5 -5 -5 -6 -6 -6 -6 -6 -6 -6 -7 -7 -7 -7 -7 -7 -7 -7 -7 -7 -8 -8 -8 -8 -8 -8 -8 -8 -8 -8 -8 -8 -8 -8 -8 -7 -7
-5 -5 -5 -5 -5 -5 -5 -6 -6 -6 -6 -6 -6 -6 -7 -7 -7 -7 -7 -7 -7 -7 -7 -7 -7 -8 -8 -8 -8 -8 -8 -8 -8 -8 -8 -8 -8 -8 -8 -8 -7 -7
-5 -6 -6 -6 -6 -6 -6 -6 -6 -6 -6 -6 -6 -7 -7 -7 -7 -8 -8 -8 -8 -7 -7 -7 -7 -8 -8 -8 -8 -8 -8 -8 -8 -8 -8 -8 -8 -8 -8 -8 -8 -8
-6 -6 -6 -6 -6 -6 -6 -6 -6 -6 -6 -6 -7 -7 -7 -7 -8 -8 -8 -8 -8 -7 -7 -7 -7 -8 -8 -8 -8 -8 -8 -8 -8 -8 -8 -8 -8 -8 -8 -8 -8 -8
-6 -6 -6 -6 -6 -7 -7 -7 -7 -7 -7 -7 -7 -7 -7 -7 -8 -8 -8 -8 -8 -7 -7 -7 -7 -8 -8 -8 -8 -8 -8 -8 -8 -8 -8 -8 -8 -8 -8 -8 -8 -8
-6 -6 -6 -6 -7 -7 -7 -7 -7 -7 -7 -7 -7 -7 -8 -8 -8 -8 -8 -8 -8 -7 -7 -7 -8 -8 -8 -8 -8 -8 -8 -8 -8 -8 -8 -8 -8 -8 -8 -8 -8 -8
-6 -6 -6 -6 -7 -7 -7 -7 -8 -8 -8 -8 -8 -8 -8 -8 -8 -8 -8 -8 -8 -8 -7 -8 -8 -8 -8 -8 -8 -8 -8 -8 -8 -8 -8 -8 -8 -8 -8 -8 -8 -8
-6 -6 -6 -7 -7 -7 -7 -8 -8 -8 -8 -8 -8 -8 -8 -8 -8 -8 -8 -8 -7 -8 -8 -8 -8 -8 -8 -8 -8 -8 -8 -8 -9 -8 -8 -8 -8 -8 -8 -8 -8 -8
-6 -6 -7 -7 -7 -7 -7 -7 -8 -8 -8 -8 -8 -8 -8 -8 -8 -8 -8 -7 -7 -7 -8 -8 -8 -8 -8 -8 -8 -8 -8 -8 -9 -9 -8 -8 -8 -8 -8 -8 -8 -8
-6 -7 -7 -7 -7 -7 -7 -7 -8 -8 -8 -8 -8 -8 -8 -8 -8 -8 -8 -7 -7 -7 -8 -8 -8 -8 -8 -8 -8 -8 -8 -8 -9 -9 -9 -8 -8 -8 -8 -9 -9 -8
-7 -7 -7 -7 -7 -7 -7 -7 -8 -8 -8 -8 -8 -8 -8 -8 -8 -8 -8 -8 -7 -7 -8 -8 -8 -8 -8 -8 -8 -9 -9 -9 -9 -9 -9 -9 -8 -8 -8 -9 -9 -9
-7 -7 -7 -7 -7 -7 -7 -7 -7 -8 -8 -8 -8 -8 -8 -8 -8 -8 -8 -8 -8 -8 -8 -8 -8 -8 -8 -8 -8 -9 -9 -9 -9 -9 -9 -9 -8 -8 -8 -9 -9 -9
-7 -7 -7 -7 -7 -7 -7 -7 -8 -8 -8 -8 -8 -8 -8 -8 -8 -8 -8 -8 -8 -8 -8 -8 -8 -8 -8 -8 -8 -9 -9 -9 -9 -9 -9 -9 -9 -9 -8 -9 -9 -9
-7 -7 -7 -7 -7 -8 -8 -8 -8 -8 -8 -8 -8 -8 -8 -8 -8 -8 -8 -8 -8 -8 -8 -8 -8 -9 -9 -8 -8 -9 -9 -9 -9 -9 -9 -9 -9 -9 -9 -9 -9 -9
-7 -7 -7 -7 -7 -8 -8 -8 -8 -8 -8 -8 -8 -8 -8 -8 -8 -8 -8 -8 -8 -8 -8 -8 -8 -9 -9 -9 -9 -9 -9 -9 -9 -9 -9 -9 -9 -9 -9 -9 -9 -9
-7 -7 -7 -7 -7 -8 -8 -8 -8 -8 -8 -8 -8 -8 -8 -8 -8 -8 -8 -8 -8 -8 -8 -8 -8 -8 -9 -9 -9 -9 -9 -9 -9 -9 -9 -9 -9 -9 -9 -9 -9 -9
-7 -7 -7 -7 -7 -8 -8 -8 -8 -8 -8 -8 -8 -8 -8 -8 -8 -8 -8 -8 -8 -8 -8 -8 -8 -8 -8 -8 -9 -9 -9 -9 -9 -9 -9 -9 -9 -9 -9 -9 -9 -9
-7 -7 -7 -7 -7 -7 -8 -8 -8 -8 -8 -8 -8 -8 -8 -8 -8 -8 -8 -8 -8 -8 -8 -8 -8 -8 -8 -8 -8 -9 -9 -9 -9 -9 -9 -9 -9 -9 -9 -9 -9 -9
-7 -7 -7 -7 -7 -7 -7 -8 -8 -8 -8 -8 -8 -8 -8 -8 -8 -8 -8 -8 -8 -8 -8 -8 -8 -8 -8 -8 -8 -8 -9 -9 -9 -9 -9 -9 -9 -9 -9 -9 -9 -9
-7 -7 -8 -8 -8 -7 -7 -8 -8 -8 -8 -8 -8 -8 -8 -8 -8 -8 -8 -8 -8 -8 -8 -8 -8 -8 -8 -8 -8 -8 -8 -8 -8 -9 -8 -9 -9 -9 -9 -9 -9 -9
-8 -8 -8 -8 -8 -8 -8 -8 -8 -8 -8 -8 -8 -8 -8 -8 -8 -8 -8 -8 -8 -8 -8 -8 -8 -8 -8 -8 -8 -8 -8 -8 -8 -8 -8 -8 -9 -9 -9 -9 -9 -9
-8 -8 -8 -8 -8 -8 -8 -8 -8 -8 -8 -8 -8 -8 -8 -8 -8 -8 -8 -8 -8 -8 -8 -8 -8 -8 -8 -8 -8 -8 -8 -8 -8 -8 -8 -8 -8 -9 -9 -9 -9 -9
Height
5921 5923 5924 5925 5925 5926 5927 5928 5929 5929 5929 5930 5930 5931 5931 5932 5932 5932 5932 5932 5933 5933 5933 5933 5933 5933 5933 5933 5932 5931 5931 5930 5929 5928 5928 5927 5926 5925 5924 5924 5923 5922
5919 5921 5922 5923 5923 5924 5925 5926 5927 5927 5928 5928 5928 5929 5930 5930 5930 5931 5931 5931 5931 5932 5932 5932 5932 5932 5932 5932 5931 5931 5930 5929 5928 5927 5927 5926 5925 5924 5923 5922 5921 5921
5917 5918 5920 5921 5921 5922 5922 5923 5924 5925 5925 5926 5926 5927 5928 5928 5929 5929 5930 5930 5930 5930 5931 5931 5931 5931 5931 5931 5930 5930 5929 5929 5928 5927 5926 5925 5924 5923 5922 5922 5921 5919
5915 5916 5917 5918 5919 5919 5920 5921 5921 5922 5923 5924 5924 5925 5926 5926 5927 5928 5928 5928 5928 5929 5929 5930 5930 5930 5930 5930 5930 5929 5929 5928 5927 5926 5925 5924 5923 5922 5922 5921 5920 5919
5912 5913 5914 5915 5916 5917 5918 5919 5919 5919 5920 5921 5922 5923 5924 5924 5925 5926 5926 5926 5927 5927 5928 5928 5928 5928 5928 5929 5929 5928 5928 5927 5926 5925 5924 5923 5922 5922 5921 5920 5919 5918
5910 5911 5912 5913 5914 5914 5915 5916 5917 5917 5918 5918 5919 5920 5922 5922 5923 5924 5924 5925 5925 5925 5926 5927 5927 5927 5927 5927 5928 5927 5927 5926 5925 5924 5923 5922 5921 5921 5920 5919 5918 5917
5908 5909 5910 5910 5911 5912 5913 5914 5914 5915 5915 5916 5917 5918 5919 5920 5921 5921 5922 5923 5923 5923 5924 5925 5925 5925 5925 5926 5926 5926 5926 5925 5925 5924 5923 5921 5921 5920 5919 5918 5918 5917
5906 5906 5907 5908 5909 5910 5911 5911 5912 5912 5913 5913 5915 5916 5917 5918 5919 5919 5920 5920 5921 5921 5922 5923 5923 5924 5924 5924 5925 5925 5925 5925 5924 5923 5922 5921 5920 5919 5918 5917 5917 5916
5903 5904 5905 5906 5907 5908 5908 5909 5909 5910 5910 5912 5913 5914 5915 5916 5916 5917 5918 5918 5919 5919 5920 5920 5921 5921 5922 5922 5923 5923 5923 5923 5923 5922 5921 5920 5919 5918 5917 5916 5915 5915
5901 5902 5903 5903 5904 5905 5905 5906 5907 5907 5908 5909 5910 5911 5913 5914 5914 5914 5915 5916 5916 5917 5917 5918 5919 5919 5920 5920 5921 5921 5922 5921 5921 5921 5920 5919 5918 5917 5916 5915 5914 5914
5899 5899 5900 5901 5901 5902 5902 5903 5904 5905 5906 5907 5908 5909 5910 5911 5911 5912 5913 5913 5914 5914 5915 5916 5916 5917 5917 5918 5918 5919 5919 5919 5919 5919 5918 5918 5917 5915 5914 5914 5913 5913
5896 5897 5897 5898 5898 5899 5899 5900 5901 5902 5903 5904 5905 5906 5907 5907 5908 5909 5910 5911 5911 5911 5912 5913 5914 5914 5915 5915 5916 5916 5917 5917 5917 5917 5916 5916 5915 5914 5912 5912 5912 5911
5894 5894 5895 5895 5896 5896 5897 5898 5899 5900 5901 5902 5902 5903 5903 5904 5905 5906 5907 5908 5908 5909 5910 5910 5911 5912 5912 5912 5913 5914 5914 5914 5914 5914 5914 5913 5913 5911 5910 5910 5910 5909
5891 5892 5892 5893 5894 5894 5895 5896 5896 5897 5898 5899 5900 5900 5901 5901 5902 5903 5904 5905 5906 5907 5907 5907 5908 5909 5910 5910 5911 5911 5911 5911 5911 5912 5911 5911 5910 5909 5908 5908 5907 5907
5889 5889 5890 5891 5892 5892 5893 5894 5894 5895 5896 5896 5897 5898 5898 5899 5899 5900 5901 5902 5903 5904 5905 5905 5905 5906 5907 5908 5908 5908 5908 5908 5909 5909 5909 5909 5908 5907 5906 5906 5905 5905
5886 5887 5888 5889 5890 5890 5891 5892 5892 5893 5894 5894 5895 5895 5896 5896 5897 5897 5898 5899 5900 5901 5902 5902 5903 5904 5904 5905 5905 5905 5904 5905 5905 5906 5906 5907 5906 5905 5904 5903 5903 5903
5884 5885 5886 5886 5887 5888 5888 5889 5890 5891 5892 5893 5893 5894 5894 5894 5895 5895 5896 5896 5897 5898 5899 5900 5900 5901 5901 5901 5901 5901 5901 5901 5902 5903 5903 5904 5903 5902 5901 5901 5900 5900
5881 5883 5883 5884 5885 5886 5887 5887 5888 5889 5890 5891 5892 5892 5892 5893 5893 5893 5893 5894 5894 5895 5896 5897 5897 5897 5897 5897 5898 5898 5898 5898 5898 5899 5900 5900 5900 5900 5899 5898 5898 5897
5879 5880 5881 5882 5883 5884 5885 5885 5886 5887 5888 5889 5890 5890 5890 5891 5891 5891 5891 5891 5892 5892 5892 5893 5894 5894 5893 5894 5894 5894 5894 5894 5894 5895 5896 5897 5897 5897 5896 5895 5895 5894
5877 5878 5879 5880 5881 5882 5882 5883 5884 5885 5886 5887 5887 5887 5888 5889 5889 5889 5889 5889 5889 5889 5889 5890 5890 5890 5890 5890 5890 5890 5890 5890 5890 5890 5891 5893 5893 5893 5893 5892 5891 5890
5874 5876 5877 5878 5878 5879 5879 5880 5881 5882 5883 5884 5884 5885 5885 5886 5886 5887 5887 5887 5887 5887 5887 5887 5887 5887 5887 5886 5886 5886 5886 5885 5885 5886 5887 5888 5889 5889 5889 5889 5888 5887
5872 5873 5874 5875 5875 5875 5876 5877 5878 5879 5880 5880 5881 5881 5882 5883 5883 5884 5884 5884 5884 5884 5884 5884 5884 5884 5884 5883 5883 5882 5882 5881 5881 5882 5884 5884 5884 5885 5885 5885 5884 5883
5868 5869 5870 5871 5871 5872 5873 5874 5875 5876 5876 5877 5877 5878 5878 5879 5880 5880 5881 5881 5880 5880 5881 5881 5881 5880 5880 5880 5879 5878 5877 5877 5877 5879 5880 5880 5880 5881 5881 5880 5880 5879
5865 5866 5866 5867 5867 5868 5869 5870 5871 5871 5872 5872 5873 5873 5874 5875 5875 5876 5876 5876 5877 5877 5877 5877 5876 5876 5877 5877 5876 5874 5873 5873 5874 5875 5876 5875 5875 5876 5877 5876 5876 5875
5861 5861 5862 5862 5863 5864 5865 5866 5866 5866 5867 5867 5867 5868 5869 5870 5870 5871 5871 5872 5872 5872 5872 5872 5872 5872 5873 5873 5872 5871 5870 5869 5869 5870 5871 5871 5871 5871 5872 5872 5872 5871
5856 5857 5858 5859 5860 5861 5861 5861 5862 5862 5862 5862 5862 5863 5864 5864 5864 5865 5866 5866 5867 5867 5867 5867 5867 5867 5868 5869 5868 5867 5865 5864 5864 5865 5866 5866 5866 5865 5867 5868 5868 5867
Wind_Speed
17 16 16 17 17 16 15 14 14 14 14 13 12 11 10 9 11 13 13 12 11 11 11 11 10 10 9 8 6 6 7 7 7 7 8 9 9 10 10 10 10 10
18 17 17 17 17 17 17 16 15 14 15 15 14 12 10 10 11 13 14 13 12 12 13 12 11 11 10 8 6 6 6 7 6 7 7 8 9 10 10 11 11 11
18 17 17 17 18 19 19 18 17 16 16 16 15 13 12 12 13 14 15 14 13 13 14 14 12 12 11 9 7 6 6 6 6 6 7 7 8 9 10 10 11 11
19 18 17 18 19 20 20 20 19 18 17 17 17 16 14 14 14 15 15 15 14 14 15 15 14 13 13 10 8 6 5 5 6 6 6 6 8 8 9 10 10 11
20 19 18 19 19 20 21 20 20 20 19 19 19 18 16 15 16 16 17 16 15 15 16 16 15 14 14 12 9 7 5 5 6 6 6 6 7 7 7 9 10 10
20 20 20 20 20 21 20 20 22 22 22 21 20 19 18 17 18 18 18 17 16 16 17 17 16 15 15 13 10 8 6 6 7 6 6 7 7 6 7 9 10 10
21 20 21 21 21 21 21 21 22 22 23 23 21 20 19 19 19 20 19 18 16 17 18 17 16 16 16 14 12 9 7 7 7 8 8 8 8 8 9 10 9 10
21 21 22 22 22 22 22 22 23 23 24 24 22 21 21 20 21 21 21 19 17 18 19 18 17 17 17 16 13 11 9 7 7 8 9 9 10 9 9 10 10 11
21 21 22 23 24 24 23 24 24 25 25 25 24 23 23 23 23 24 22 20 18 20 20 19 18 17 18 17 15 12 10 8 7 8 9 9 9 9 8 10 12 14
19 20 21 22 23 25 25 25 25 25 26 25 25 25 24 24 25 25 23 20 19 21 21 20 19 18 19 18 17 14 12 10 9 9 9 10 10 10 10 11 13 15
18 19 20 21 22 23 24 25 25 25 25 26 25 25 25 25 26 25 22 19 19 21 22 21 20 19 20 20 18 16 14 12 11 11 11 11 12 13 13 14 15 16
16 17 17 18 19 20 20 21 22 22 23 24 25 25 25 25 24 22 20 19 20 23 24 23 21 20 20 21 20 18 16 15 14 13 13 13 13 15 16 16 16 17
14 14 14 15 16 17 17 18 18 19 20 21 22 22 21 21 21 19 19 19 20 23 24 24 22 21 21 22 21 19 18 17 16 14 14 14 14 16 18 18 18 19
13 12 12 12 12 11 11 12 13 14 15 16 17 17 17 17 18 18 18 19 20 22 24 25 23 22 22 22 22 21 21 20 18 16 15 15 15 17 18 19 21 21
13 11 10 9 8 6 6 6 6 7 8 10 12 14 15 16 16 17 18 19 20 21 23 24 24 22 22 23 24 24 23 22 20 18 16 15 15 16 18 19 21 22
14 12 10 9 6 5 5 4 4 4 4 5 7 10 13 15 16 17 18 19 19 20 22 23 24 23 23 24 25 26 26 25 23 20 18 16 15 16 18 19 21 21
14 12 11 9 7 7 7 7 8 8 7 6 6 7 9 12 15 16 18 19 19 20 22 23 24 24 25 26 27 28 29 28 26 23 20 17 16 16 18 19 21 23
15 14 13 11 10 10 10 11 12 12 11 9 9 9 10 10 11 13 15 18 19 21 23 23 24 26 27 27 28 29 30 30 29 27 23 20 17 17 17 19 21 23
16 16 15 14 13 14 15 16 16 15 14 14 13 14 13 11 10 12 13 15 17 19 21 23 24 26 28 29 29 30 31 32 31 30 26 23 19 17 17 18 21 23
19 18 17 17 18 19 20 20 19 18 18 18 18 18 17 14 14 15 15 15 16 17 19 21 23 25 28 29 30 31 32 33 33 32 30 26 23 19 17 18 20 23
21 20 20 20 21 23 23 23 23 23 22 23 23 22 21 20 20 19 18 18 18 18 19 19 21 24 27 29 31 32 33 35 35 34 32 30 27 23 19 18 20 24
24 24 23 23 24 25 26 27 27 26 26 26 26 26 25 25 24 23 22 22 22 22 22 22 23 24 25 28 30 33 35 36 36 35 34 33 31 27 23 21 22 24
27 27 26 26 27 27 27 28 28 28 28 29 29 29 29 28 28 27 27 28 28 27 26 26 27 27 27 28 30 33 36 37 37 36 36 36 36 32 27 25 25 26
27 28 29 30 30 29 29 28 29 30 30 31 31 31 31 31 31 31 31 31 32 31 30 31 31 32 31 31 32 34 36 37 38 38 37 38 39 37 32 29 28 29
30 31 32 33 32 31 30 30 31 32 32 33 34 34 33 34 34 34 34 34 34 34 34 35 35 35 35 35 36 37 38 39 39 38 39 40 41 40 37 33 31 32
35 37 35 34 33 33 33 33 33 34 35 36 36 36 36 36 36 36 36 36 36 37 38 38 38 39 38 38 40 41 41 41 41 40 40 41 43 44 41 37 35 35
Wind_Direction
220 218 217 218 222 225 229 230 228 230 236 242 246 249 259 274 287 297 302 300 285 263 251 252 256 261 267 271 288 313 328 338 342 345 347 347 349 350 348 346 347 349
224 224 222 224 226 230 234 236 234 233 236 242 247 253 260 268 275 288 298 297 285 263 252 254 256 260 264 268 283 306 324 337 341 343 344 344 346 347 346 346 348 350
229 228 228 230 232 233 235 238 240 238 238 244 251 254 256 260 268 281 291 293 282 261 253 256 257 259 262 264 277 298 318 333 338 340 340 340 347 352 354 356 358 360
233 232 231 232 234 236 237 240 243 244 242 244 248 251 254 259 266 276 283 286 276 258 253 258 259 259 261 263 273 290 311 330 333 331 332 337 349 358 360 359 360 2
236 236 235 235 236 239 241 242 244 246 245 243 245 249 253 257 262 270 277 279 271 255 252 258 260 258 259 262 270 281 301 322 325 321 321 330 343 351 350 347 349 354
242 243 242 240 240 241 243 244 245 246 247 247 247 249 252 256 261 267 273 274 266 253 249 255 258 257 257 262 268 276 295 312 315 313 311 317 326 329 327 332 340 349
245 246 246 246 245 245 245 245 246 247 249 249 250 251 254 257 260 264 268 268 261 250 246 251 256 255 254 259 265 273 288 301 304 304 304 306 311 311 309 316 332 346
246 246 247 248 248 248 247 248 248 249 250 251 252 252 254 257 259 262 265 263 255 246 243 247 253 253 252 255 261 268 280 290 292 294 299 307 311 309 304 308 324 340
245 246 246 247 247 246 246 247 248 250 251 254 255 255 256 258 259 262 264 260 251 244 241 245 250 251 249 252 256 262 273 282 285 291 300 310 316 314 309 311 320 328
244 246 246 247 247 246 245 245 246 248 251 254 256 257 259 259 261 264 264 256 247 242 241 244 249 250 248 249 252 257 267 276 281 289 297 306 312 313 313 318 323 323
246 246 246 246 245 245 245 246 246 247 250 253 255 257 259 260 261 263 260 251 242 239 240 243 248 250 248 247 250 254 262 272 279 286 292 297 304 308 313 324 334 335
245 245 243 241 241 241 242 244 246 247 249 253 256 258 260 261 261 259 253 244 238 237 240 244 250 253 250 248 249 252 258 267 276 284 291 294 297 303 311 324 338 341
241 240 239 237 237 239 241 244 247 248 250 252 256 258 259 259 258 254 248 241 236 236 240 246 253 256 253 249 249 251 255 263 272 281 289 293 296 302 310 322 332 337
235 235 233 233 233 234 237 241 244 248 250 251 253 255 256 256 255 251 246 242 239 238 241 248 256 261 258 253 252 253 254 259 267 276 284 290 293 299 311 322 328 332
231 232 230 228 226 225 227 231 237 245 250 253 254 254 253 251 251 250 247 245 245 244 245 251 260 265 262 256 254 256 256 256 263 271 278 285 289 295 308 319 324 330
233 233 234 234 234 242 249 257 268 271 270 270 268 262 257 254 252 251 251 250 250 249 249 254 262 267 264 258 255 257 258 257 262 268 274 280 287 294 304 314 321 328
239 239 241 244 249 261 271 280 283 282 283 282 278 277 271 264 259 257 255 254 254 253 253 256 262 265 264 259 255 257 259 260 262 268 273 279 286 294 302 310 318 324
242 243 247 251 257 264 271 276 277 279 283 282 280 282 280 275 271 267 264 261 259 259 258 259 260 262 263 261 258 258 261 262 263 267 272 277 283 291 299 306 314 319
243 246 249 254 260 263 265 268 272 277 280 280 278 277 275 275 277 277 275 272 269 266 264 262 260 259 261 261 260 261 263 264 264 267 271 275 279 286 294 301 308 311
241 245 251 256 259 261 263 266 269 272 275 275 274 273 274 276 278 279 279 279 277 275 272 267 262 259 259 261 262 262 264 265 266 267 270 274 278 282 289 295 301 304
239 242 246 252 256 259 261 265 267 268 270 271 272 272 274 274 275 277 280 281 281 281 278 275 270 265 262 262 263 264 265 266 267 268 270 273 276 280 286 291 294 298
239 240 242 246 250 254 257 261 264 265 265 266 267 269 270 271 272 275 278 279 280 279 278 278 278 275 271 267 266 265 266 267 268 269 271 273 275 278 284 287 290 293
239 241 242 244 246 249 252 256 258 260 260 261 263 264 266 268 270 271 271 271 273 275 277 278 277 278 277 275 272 269 268 269 271 272 273 273 274 276 280 284 287 289
239 242 243 244 246 246 247 249 252 255 257 259 260 261 262 264 265 266 266 266 267 269 272 274 275 276 277 276 275 274 273 273 273 274 275 275 275 276 278 281 284 286
236 239 242 244 244 244 244 246 248 251 253 255 256 257 259 260 260 260 260 261 262 264 264 266 269 271 274 274 274 275 275 276 277 277 277 277 276 277 278 279 281 284
238 238 242 246 246 245 246 247 250 253 256 257 259 261 262 263 264 263 261 258 259 260 260 261 263 265 268 270 271 272 273 274 275 277 279 279 277 277 278 278 280 282